Wind_Gust
14 12 12 12 11 10 13 13 12 12 12 11 11 13 14 15 14 13 12 11 11 10 11 12 12 10 10 9 9 8 9 8 6 6 6 7 5 5 5 6 7 8
15 14 13 13 12 12 14 11 13 13 14 13 12 13 14 14 15 12 13 12 10 14 15 13 13 11 10 10 10 10 9 7 7 6 7 5 6 6 6 5 6 6
14 15 15 16 16 15 17 14 12 13 13 14 13 14 15 14 15 14 12 11 11 14 13 12 11 9 10 10 10 11 9 8 7 8 7 7 7 7 7 5 5 8
17 15 15 15 15 16 16 16 16 15 15 15 14 14 14 15 15 16 14 12 10 11 10 8 9 10 10 10 10 10 9 8 7 8 7 5 6 7 6 5 5 5
14 16 16 15 14 15 15 15 17 18 18 18 17 16 16 15 14 15 16 15 11 10 9 11 9 9 9 10 10 10 7 8 7 7 7 6 6 6 7 6 5 5
17 16 16 15 15 15 17 16 16 17 18 18 20 19 17 16 15 15 15 16 15 10 12 10 10 11 13 14 11 10 10 8 8 7 6 6 6 6 7 6 6 5
17 17 18 17 17 17 17 17 17 17 18 17 18 19 19 20 20 19 18 15 16 15 12 11 10 11 11 11 10 10 9 10 9 9 8 6 6 5 5 6 6 6
16 15 17 17 17 18 18 19 18 18 17 17 17 18 17 19 21 20 18 16 14 16 14 11 9 10 10 8 11 11 10 8 8 9 8 7 5 5 6 5 6 7
17 17 17 17 18 18 19 19 19 18 17 17 18 17 17 16 18 19 18 14 15 14 15 11 9 11 10 11 11 12 12 10 9 9 9 8 6 7 7 6 6 6
17 17 18 18 18 17 18 18 18 18 17 17 18 17 18 17 16 17 18 16 14 15 13 14 12 12 12 12 12 12 11 11 12 10 8 8 9 7 7 7 8 7
19 17 18 18 18 17 17 18 18 18 18 18 19 20 19 17 18 17 18 17 18 14 12 11 12 13 14 12 12 11 11 10 10 10 10 10 8 8 8 8 8 8
18 18 19 18 17 17 17 17 18 19 19 19 19 20 19 18 17 18 17 19 19 18 13 13 13 14 15 15 13 11 10 9 9 10 10 9 8 7 8 8 9 8
18 17 17 16 16 16 17 18 20 19 20 20 19 18 18 18 18 18 17 17 18 18 17 15 12 12 13 13 11 11 11 10 9 11 10 8 6 8 8 8 7 8
16 15 15 16 16 16 17 18 19 20 20 19 19 19 19 18 17 17 16 15 17 18 18 15 15 13 11 11 12 12 12 10 11 9 8 7 6 6 7 7 7 7
15 14 14 16 18 20 20 20 19 19 19 20 19 19 19 18 16 16 16 17 17 17 19 18 15 12 12 13 13 11 11 11 11 10 11 9 7 6 6 7 6 6
16 15 17 16 20 20 20 20 20 20 19 20 20 19 19 19 19 18 16 16 18 19 19 18 18 14 13 17 15 15 13 12 11 11 10 11 11 8 6 6 7 6
18 18 17 19 16 19 21 21 20 20 20 21 21 21 20 21 18 19 18 17 18 18 19 19 19 17 15 18 18 17 14 12 13 11 10 11 11 12 10 8 7 6
18 18 19 18 18 20 20 20 19 21 21 21 22 22 22 19 20 19 18 18 18 19 19 19 19 18 15 18 18 18 14 15 12 12 12 12 12 11 11 10 10 8
19 19 19 20 20 19 20 21 21 21 23 21 21 19 18 21 20 20 20 19 19 19 19 19 17 20 22 18 19 18 17 15 13 13 13 12 12 12 12 11 10 10
20 20 20 19 19 21 21 20 21 21 20 20 20 22 21 21 21 21 19 20 19 19 17 17 17 21 24 23 19 19 18 14 12 13 12 13 13 13 12 12 12 12
21 20 19 19 20 21 21 21 20 21 22 21 20 18 17 18 16 18 19 19 20 19 18 19 20 22 22 23 17 16 17 14 12 11 11 10 12 13 13 14 12 13
18 18 19 19 20 20 21 21 21 20 20 21 21 20 19 19 20 19 21 21 20 19 18 20 21 23 25 25 21 14 14 13 11 11 11 10 11 11 11 11 12 12
18 18 18 18 18 19 21 21 20 21 20 20 22 21 19 20 19 17 17 17 19 19 20 19 18 20 24 27 25 17 11 10 8 9 9 11 11 11 11 11 11 10
18 18 18 18 18 19 19 20 20 19 21 19 17 18 19 18 17 19 18 16 17 19 20 18 19 20 22 24 26 23 12 10 8 10 9 9 8 6 9 10 12 18
17 17 17 17 18 19 18 18 18 17 17 20 21 19 18 17 18 19 20 19 17 18 21 22 20 19 21 22 23 26 18 10 8 8 9 11 10 9 6 10 10 14
17 18 18 17 18 19 19 18 17 18 20 21 22 19 19 18 18 19 19 19 17 18 19 18 20 21 22 22 22 24 22 15 11 10 14 14 10 12 10 7 8 10
Wind_Speed
6 6 6 7 6 6 6 7 7 7 7 6 6 7 7 8 9 8 8 7 6 4 7 7 7 7 6 5 6 5 5 5 4 3 4 4 3 2 2 4 4 4
9 8 7 7 7 7 7 7 8 8 8 7 7 7 8 8 9 7 8 7 6 8 8 8 8 8 7 6 6 6 5 4 5 3 4 4 3 4 3 3 4 3
9 10 10 10 9 10 10 8 7 7 8 8 8 7 8 8 9 9 7 7 7 8 8 7 7 6 5 6 6 6 6 5 5 5 4 5 4 4 4 3 3 5
11 10 9 9 9 10 9 9 10 9 8 8 8 8 8 8 9 10 9 7 6 7 6 5 5 5 6 6 6 6 6 5 5 5 5 2 3 3 4 3 2 3
9 10 10 9 9 9 9 9 10 10 10 10 10 9 9 9 8 9 9 9 7 7 6 7 6 6 6 6 6 6 5 5 4 5 5 4 3 3 4 3 3 3
11 10 10 9 9 9 10 10 10 10 11 11 11 10 10 10 9 9 9 10 9 7 8 6 6 7 7 8 7 6 6 5 5 5 4 4 4 3 4 4 3 3
11 11 12 10 11 11 11 11 10 10 10 10 10 11 11 12 12 11 10 9 10 9 8 7 7 7 7 7 6 6 6 6 6 6 5 4 4 3 3 4 3 3
11 10 10 11 11 11 12 11 11 11 10 10 11 11 10 11 12 11 10 9 6 8 8 7 5 5 6 4 5 6 6 5 5 6 5 4 4 4 4 2 3 4
11 11 11 12 12 11 12 12 11 11 10 10 11 10 10 9 10 11 11 9 9 8 8 5 2 5 5 4 5 6 7 6 5 5 5 5 4 5 5 3 4 4
10 10 12 12 12 11 12 12 11 11 10 11 11 10 10 10 10 11 11 10 9 9 5 7 7 5 5 4 4 5 5 6 7 6 5 5 5 5 5 5 5 5
13 11 12 12 11 10 11 12 11 11 11 11 11 12 12 10 10 10 11 11 11 9 5 5 7 6 5 4 4 3 4 3 4 5 5 6 6 5 5 5 5 6
11 12 12 12 11 11 11 11 11 12 12 11 11 12 12 11 10 10 10 11 12 11 8 7 7 6 4 3 5 4 4 4 4 5 6 6 5 5 5 5 5 5
11 11 10 10 10 10 9 11 12 12 12 12 11 11 11 11 11 11 10 10 11 11 10 10 8 5 2 4 3 4 4 4 5 7 7 5 4 5 5 5 4 4
10 9 9 10 10 10 10 11 11 12 12 11 11 12 11 11 10 10 9 8 9 10 11 9 9 8 6 5 2 3 4 5 4 4 3 3 3 3 4 4 4 4
9 8 8 9 10 10 11 11 11 11 12 12 11 11 10 11 10 10 10 11 10 10 11 11 9 7 6 5 2 2 4 4 5 4 4 3 4 3 3 4 4 3
9 9 10 10 11 11 10 10 10 11 11 12 12 11 11 11 12 11 10 10 10 11 11 10 10 7 9 12 5 3 3 4 5 5 4 4 4 4 3 3 4 3
10 10 9 11 10 10 10 11 11 10 11 12 12 12 12 12 10 11 11 10 10 10 11 11 10 9 13 11 9 7 4 3 4 3 3 4 4 5 5 5 4 3
11 11 11 11 11 12 11 10 10 11 12 12 12 14 12 11 12 12 11 11 10 11 11 11 10 16 14 11 9 9 6 3 2 4 4 4 4 4 4 5 6 4
11 11 11 11 12 11 10 11 11 12 12 12 13 11 11 12 12 12 12 11 11 11 11 11 9 18 20 15 9 9 7 5 3 1 4 4 3 4 5 6 6 5
11 12 12 12 11 11 11 11 12 12 11 10 10 12 12 12 13 13 12 12 11 11 10 10 10 17 19 19 14 9 3 5 2 3 2 5 3 3 4 5 6 6
11 11 11 11 11 11 10 11 11 11 12 11 10 9 10 10 10 11 11 11 12 11 10 11 11 18 18 19 15 8 5 5 3 4 4 5 5 3 2 4 6 5
11 10 10 10 11 11 11 11 12 11 11 11 10 11 10 10 11 11 12 13 12 11 11 12 12 19 21 21 17 9 4 2 3 2 2 2 5 2 3 3 3 5
11 11 11 11 11 11 11 11 11 11 11 9 11 11 10 11 11 10 9 10 11 11 12 11 11 15 19 21 21 15 4 3 1 3 3 3 4 3 2 3 4 5
11 11 11 10 11 11 11 10 10 9 10 9 9 10 10 10 10 10 9 9 10 11 11 11 11 14 18 18 20 20 10 4 2 3 2 2 2 3 2 3 5 8
10 10 10 10 11 11 10 10 10 9 9 9 9 9 9 9 9 10 10 10 10 11 15 13 11 13 17 18 17 21 14 5 3 1 2 4 5 3 2 2 3 6
8 10 9 10 10 10 10 9 9 9 10 9 10 8 8 9 9 9 11 10 10 10 10 11 11 11 15 18 17 18 19 9 4 4 4 4 5 5 4 2 3 4
Wind_Direction
336 339 332 330 325 315 310 313 310 304 297 294 290 291 288 286 288 279 268 252 238 191 225 223 235 227 213 196 197 199 195 202 188 187 169 167 182 146 195 205 194 205
352 349 344 337 333 333 326 320 314 310 307 303 298 295 293 291 285 280 275 265 230 219 218 217 219 214 206 196 194 195 204 180 187 185 172 180 187 172 206 207 196 172
360 358 356 354 345 338 334 328 321 316 310 307 301 299 298 297 295 292 283 270 247 240 230 222 219 214 207 208 192 198 196 186 188 196 184 201 162 189 226 203 166 181
4 4 359 354 352 347 344 341 340 336 330 326 323 313 307 305 304 301 299 285 261 253 249 248 236 212 203 228 201 199 198 195 191 166 179 149 186 185 202 199 158 163
2 360 359 355 351 348 349 350 347 344 340 332 328 327 321 315 307 302 300 293 274 266 251 234 216 211 203 220 209 190 192 188 177 167 166 174 201 176 197 166 161 156
2 360 357 355 349 351 352 353 347 345 342 341 337 330 329 324 315 308 304 304 301 277 264 258 236 226 207 210 198 190 182 182 186 170 162 168 183 196 176 151 147 166
3 1 357 353 351 352 353 350 348 348 346 339 335 342 338 335 331 325 320 313 309 309 285 253 245 241 217 209 196 191 189 189 177 185 174 182 178 168 155 152 144 136
6 4 0 358 357 354 353 349 346 345 341 341 344 337 341 338 336 332 325 323 307 303 297 290 299 302 299 273 212 196 196 177 188 194 185 178 182 187 187 141 151 143
10 6 360 1 359 356 352 348 342 338 342 344 341 337 335 339 333 331 331 329 317 319 313 313 303 279 251 241 264 226 196 189 187 202 185 179 195 213 202 162 146 161
10 0 2 359 0 354 352 346 342 339 339 345 340 336 338 336 337 334 334 336 331 330 333 313 293 281 267 218 205 256 261 207 182 198 205 192 193 202 186 182 176 154
6 2 1 360 357 352 351 347 344 341 342 345 342 340 337 337 339 342 338 340 338 338 330 288 286 283 282 281 259 215 223 246 238 207 202 204 199 193 181 177 184 187
2 1 359 351 349 351 350 346 347 351 345 343 346 339 336 338 343 342 343 339 337 335 320 293 271 273 278 275 280 254 203 206 225 238 221 205 198 185 167 164 180 181
0 355 350 348 348 345 346 354 354 349 348 345 341 339 339 340 342 342 344 340 338 336 329 312 293 274 232 246 242 245 245 205 202 222 215 202 191 183 161 152 156 158
356 347 350 347 348 350 354 355 352 349 346 343 345 346 341 338 339 339 336 342 344 343 336 321 302 299 289 258 204 210 224 230 229 235 233 217 184 161 151 150 154 164
349 349 346 349 349 351 355 352 348 347 348 348 349 347 343 337 337 343 343 345 349 350 342 334 320 300 278 276 236 221 203 220 227 235 224 202 173 147 128 130 135 158
350 351 351 350 354 353 349 347 349 349 349 351 351 348 344 344 345 345 346 348 347 350 347 341 335 321 308 297 266 234 218 218 219 225 213 179 166 149 128 122 132 139
359 355 351 356 350 349 350 350 349 348 352 355 351 349 350 348 343 350 351 346 348 348 348 347 340 340 333 319 308 295 271 272 273 256 214 187 180 171 165 152 139 128
359 354 357 355 354 353 350 346 348 354 356 353 353 352 345 343 354 352 350 351 348 351 350 350 348 348 340 324 322 302 291 265 234 263 250 209 178 176 158 150 144 139
358 357 356 357 355 351 350 352 353 357 358 354 350 342 342 355 351 351 353 349 353 351 348 348 353 355 352 339 328 310 276 229 253 274 279 265 189 173 163 150 142 136
359 359 358 355 351 351 351 355 358 355 350 350 349 351 353 349 349 350 348 352 349 349 344 347 355 358 353 355 357 349 24 85 53 23 322 298 272 195 166 161 161 155
360 357 352 351 349 351 352 356 358 353 353 352 349 349 347 344 339 340 346 347 347 346 349 354 355 355 360 358 356 7 35 105 87 63 23 336 325 314 272 187 174 169
356 352 349 349 350 351 354 356 355 353 350 346 345 345 347 348 348 353 350 344 339 344 355 1 351 355 359 1 0 13 358 30 86 78 79 19 307 329 294 262 206 173
354 352 349 350 350 352 353 354 353 349 347 348 346 347 346 348 345 342 337 337 340 347 353 358 349 354 359 0 360 360 5 359 51 75 48 42 315 293 241 267 251 190
354 352 349 350 351 353 349 349 350 346 346 346 347 343 343 342 337 336 339 343 343 346 349 351 346 350 357 1 360 356 344 336 319 74 94 131 274 295 270 235 250 228
352 352 352 350 353 352 349 350 351 345 335 342 346 345 343 339 344 345 341 345 347 343 344 355 350 348 353 356 359 358 349 320 312 255 157 252 246 240 174 177 261 260
352 353 352 353 351 351 349 350 346 345 346 345 346 349 344 342 345 348 347 340 338 342 345 349 348 351 349 349 356 357 353 330 297 296 283 252 228 224 228 204 200 241